Weather History for Camarillo, CA

Change the Weather History Date:

Saturday, November 15, 2014

  Actual Average Record
Temperature  
Mean Temperature 62 °F 59 °F  
Max Temperature 71 °F 71 °F 90 °F (2008)
Min Temperature 52 °F 47 °F 33 °F (1964)
Degree Days  
Heating Degree Days 3 7  
Month to date heating degree days 33 85  
Since 1 July heating degree days 40 208  
Cooling Degree Days 0 0  
Month to date cooling degree days 22 13  
Year to date cooling degree days 997 329  
Growing Degree Days 11 (Base 50)    
Moisture  
Dew Point 53 °F    
Average Humidity 76    
Maximum Humidity 93    
Minimum Humidity 59    
Precipitation  
Precipitation 0.00 in 0.05 in 1.14 in (1952)
Month to date precipitation 0.04 0.73  
Year to date precipitation 4.97 12.58  
Since 1 July precipitation 0.78 1.60  
Sea Level Pressure  
Sea Level Pressure 30.05 in    
Wind  
Wind Speed 5 mph (ENE)    
Max Wind Speed 13 mph    
Max Gust Speed 17 mph    
Visibility 10 miles    
Events      
T = Trace of Precipitation, MM = Missing Value Source: NWS Daily Summary

Daily Weather History Graph

Daily Weather History Graph

Search for Another Location

Airport:

Trip Planner

Search our weather history database for the weather conditions in past years. The results will help you decide how hot, cold, wet, or windy it might be!

Date:

Astronomy

Nov. 15, 2014 Rise Set
Actual Time 6:29 AM PST 4:52 PM PST
Civil Twilight 6:02 AM PST 5:18 PM PST
Nautical Twilight 5:32 AM PST 5:49 PM PST
Astronomical Twilight 5:02 AM PST 6:18 PM PST
Moon 12:03 AM PST (11/15) 1:01 PM PST (11/15)
Length of Visible Light 11h 16m
Length of Day
10h 22m
Last Quarter, 39% of the Moon is Illuminated
Nov 15
Last Quarter
Nov 22
New
Nov 29
First Quarter
Dec 6
Full
Dec 14
Last Quarter

Hourly Weather History & Observations

Time (PST) Temp. Dew Point Humidity Pressure Visibility Wind Dir Wind Speed Gust Speed Precip Events Conditions
12:55 AM 57.0 °F 53.1 °F 87% 30.03 in 10.0 mi ENE 4.6 mph - N/A   Clear
1:55 AM 54.0 °F 51.1 °F 90% 30.04 in 10.0 mi WNW 4.6 mph - N/A   Clear
2:55 AM 55.0 °F 51.1 °F 86% 30.05 in 10.0 mi Calm Calm - N/A   Clear
3:21 AM 54.0 °F 51.1 °F 90% 30.02 in 9.0 mi NE 3.5 mph - N/A   Scattered Clouds
3:55 AM 52.0 °F 48.9 °F 89% 30.06 in 9.0 mi Calm Calm - N/A   Clear
4:30 AM 53.1 °F 50.0 °F 89% 30.03 in 9.0 mi ENE 4.6 mph - N/A   Mostly Cloudy
4:47 AM 55.9 °F 52.0 °F 87% 30.04 in 10.0 mi NE 3.5 mph - N/A   Overcast
4:55 AM 55.9 °F 52.0 °F 87% 30.07 in 10.0 mi East 3.5 mph - N/A   Overcast
5:55 AM 57.0 °F 52.0 °F 83% 30.05 in 10.0 mi East 4.6 mph - N/A   Overcast
6:55 AM 57.9 °F 53.1 °F 84% 30.08 in 8.0 mi Calm Calm - N/A   Overcast
7:55 AM 61.0 °F 55.0 °F 81% 30.10 in 9.0 mi ENE 5.8 mph - N/A   Overcast
8:55 AM 64.9 °F 55.0 °F 70% 30.10 in 9.0 mi East 8.1 mph - N/A   Partly Cloudy
9:55 AM 69.1 °F 55.0 °F 61% 30.11 in 10.0 mi Calm Calm - N/A   Clear
10:55 AM 68.0 °F 54.0 °F 61% 30.08 in 10.0 mi SW 4.6 mph - N/A   Partly Cloudy
11:37 AM 69.1 °F 55.0 °F 61% 30.05 in 10.0 mi WSW 5.8 mph - N/A   Scattered Clouds
11:55 AM 69.1 °F 55.0 °F 61% 30.06 in 10.0 mi WSW 5.8 mph - N/A   Partly Cloudy
12:55 PM 69.1 °F 55.0 °F 61% 30.04 in 10.0 mi SSW 11.5 mph - N/A   Scattered Clouds
1:55 PM 70.0 °F 55.0 °F 59% 30.04 in 10.0 mi SW 9.2 mph - N/A   Scattered Clouds
2:55 PM 68.0 °F 55.9 °F 65% 30.02 in 10.0 mi WSW 9.2 mph - N/A   Scattered Clouds
3:55 PM 66.0 °F 55.0 °F 68% 30.04 in 10.0 mi SW 9.2 mph - N/A   Partly Cloudy
4:55 PM 64.0 °F 55.0 °F 73% 30.04 in 10.0 mi WSW 3.5 mph - N/A   Clear
5:55 PM 63.0 °F 54.0 °F 72% 30.04 in 10.0 mi East 4.6 mph - N/A   Clear
6:55 PM 60.1 °F 53.1 °F 78% 30.05 in 10.0 mi ENE 5.8 mph - N/A   Clear
7:55 PM 61.0 °F 53.1 °F 75% 30.05 in 10.0 mi East 4.6 mph - N/A   Clear
8:55 PM 55.9 °F 50.0 °F 80% 30.05 in 10.0 mi Calm Calm - N/A   Clear
9:55 PM 55.0 °F 51.1 °F 86% 30.05 in 10.0 mi Calm Calm - N/A   Clear
10:55 PM 55.9 °F 52.0 °F 87% 30.06 in 10.0 mi ENE 5.8 mph - N/A   Clear
11:55 PM 52.0 °F 48.9 °F 89% 30.05 in 10.0 mi NE 3.5 mph - N/A   Clear